{"data":{"norad_id":63105,"epoch":"2026-09-21T00:46:43.169376Z","epoch_age_seconds":116250,"freshness":"FRESH","line1":"1 63105U 25039B   26264.03244409  .00173843  00000+0  13284-2 0  9995","line2":"2 63105  43.0001 139.7579 0001411 264.4570  95.6137 15.70871385 90332","mean_motion":15.70871385,"eccentricity":0.0001411,"inclination_deg":43.0001,"raan_deg":139.7579,"arg_perigee_deg":264.457,"mean_anomaly_deg":95.6137,"bstar":0.0013284,"rev_number":9033,"period_min":91.668866958195,"perigee_km":355.45511493146,"apogee_km":357.35560278513,"semimajor_km":6734.5423588583,"source":"CELESTRAK","updated_at":"2026-09-22T09:00:49.762349Z"}}